^^
Meteo Knjazevac Station Historical Data
Daily Summary for January 24, 2021 Units:  English    Metric   Both
Daily Weekly Monthly Yearly Custom
  High: Low: Average:
Temperature: 46.9 °F 45 °F 46.1 °F
Dew Point: 46.5 °F 43.3 °F 45.4 °F
Humidity: 99% 94% 97%
Wind Speed: 3mph 0mph 1.6mph
Wind Gust: 6mph - -
Wind- - SW
Pressure: 30.42 in 30.39 in -
Precipitation: 0.00 in    
Historical Graphs
 
 
Tabular Data for January 24, 2021
Time Temperature Dew Point Pressure Wind Wind Speed Wind Gust Humidity Rainfall Rate (Hourly) solar Conditions
00:00 46.9 °F 46.4 °F 30.39 in ENE 1 mph 4 mph 98% 0.00 in 0 W/m2
00:10 46.8 °F 46.5 °F 30.39 in WSW 1 mph 4 mph 99% 0.00 in 0 W/m2
00:20 46.8 °F 46.5 °F 30.39 in West 1 mph 2 mph 99% 0.00 in 0 W/m2
00:30 46.8 °F 46.2 °F 30.39 in Calm   2 mph 98% 0.00 in 0 W/m2
00:40 46.9 °F 46.4 °F 30.40 in SSW 1 mph 3 mph 98% 0.00 in 0 W/m2
00:50 46.9 °F 46.4 °F 30.40 in WSW 1 mph 2 mph 98% 0.00 in 0 W/m2
01:00 46.8 °F 46.5 °F 30.40 in SW 2 mph 3 mph 99% 0.00 in 0 W/m2
01:10 46.8 °F 46.2 °F 30.40 in WSW 2 mph 5 mph 98% 0.00 in 0 W/m2
01:20 46.6 °F 46 °F 30.40 in SW 3 mph 5 mph 98% 0.00 in 0 W/m2
01:30 46.6 °F 46 °F 30.40 in WSW 2 mph 5 mph 98% 0.00 in 0 W/m2
01:40 46.6 °F 46 °F 30.41 in WSW 1 mph 4 mph 98% 0.00 in 0 W/m2
01:50 46.6 °F 46 °F 30.41 in West 1 mph 2 mph 98% 0.00 in 0 W/m2
02:00 46.4 °F 45.9 °F 30.41 in WSW 1 mph 4 mph 98% 0.00 in 0 W/m2
02:10 46.4 °F 45.9 °F 30.41 in WSW 2 mph 4 mph 98% 0.00 in 0 W/m2
02:20 46.2 °F 45.7 °F 30.41 in WSW 2 mph 4 mph 98% 0.00 in 0 W/m2
02:30 46.2 °F 45.1 °F 30.41 in SW 2 mph 6 mph 96% 0.00 in 0 W/m2
02:40 46 °F 45 °F 30.41 in SSW 2 mph 3 mph 96% 0.00 in 0 W/m2
02:50 46 °F 45.5 °F 30.41 in SW 3 mph 5 mph 98% 0.00 in 0 W/m2
03:00 45.9 °F 45.3 °F 30.41 in SW 2 mph 5 mph 98% 0.00 in 0 W/m2
03:10 45.7 °F 45.1 °F 30.41 in South 1 mph 5 mph 98% 0.00 in 0 W/m2
03:20 45.7 °F 45.1 °F 30.41 in SW 1 mph 4 mph 98% 0.00 in 0 W/m2
03:30 45.5 °F 45 °F 30.41 in SW 2 mph 4 mph 98% 0.00 in 0 W/m2
03:40 45.5 °F 44.4 °F 30.41 in SW 1 mph 3 mph 96% 0.00 in 0 W/m2
03:50 45.5 °F 44.4 °F 30.41 in SW 3 mph 5 mph 96% 0.00 in 0 W/m2
04:00 45.5 °F 44.4 °F 30.41 in SW 2 mph 6 mph 96% 0.00 in 0 W/m2
04:10 45.5 °F 44.2 °F 30.41 in WSW 3 mph 6 mph 95% 0.00 in 0 W/m2
04:20 45.5 °F 43.9 °F 30.42 in WSW 2 mph 6 mph 94% 0.00 in 0 W/m2
04:30 45.3 °F 44 °F 30.42 in NW 1 mph 3 mph 95% 0.00 in 0 W/m2
04:40 45.1 °F 43.5 °F 30.42 in WSW 2 mph 5 mph 94% 0.00 in 0 W/m2
04:50 45 °F 43.3 °F 30.42 in WSW 1 mph 5 mph 94% 0.00 in 0 W/m2
Knjazevac, Serbia
Compliments of Weather Underground - 2 mb